| time (UTC) | temp F | wind direction | speed MPH | gust MPH | rain 1hr in | rain 24hr in | rain mn in | humidity % | barometer mb |
| 20260502170502 | 54 | 316 | 1.0 | 4.0 | 0.00 | 0.03 | 0.03 | 84 | 1014.4 |
| 20260502164002 | 53 | 304 | 1.0 | 5.0 | 0.00 | 0.03 | 0.03 | 86 | 1014.1 |
| 20260502163502 | 53 | 321 | 1.0 | 3.0 | 0.00 | 0.03 | 0.03 | 87 | 1014.1 |
| 20260502163002 | 53 | 334 | 1.0 | 5.0 | 0.00 | 0.03 | 0.03 | 86 | 1014.1 |
| 20260502162503 | 53 | 327 | 1.0 | 5.0 | 0.00 | 0.03 | 0.03 | 87 | 1014.1 |
| 20260502162002 | 52 | 328 | 1.0 | 3.0 | 0.00 | 0.03 | 0.03 | 87 | 1014.1 |
| 20260502161502 | 52 | 337 | 0.0 | 3.0 | 0.00 | 0.03 | 0.03 | 87 | 1014.1 |
| 20260502161002 | 52 | 0 | 0.0 | 0.0 | 0.00 | 0.03 | 0.03 | 87 | 1014.1 |
| 20260502160502 | 52 | 0 | 0.0 | 0.0 | 0.00 | 0.03 | 0.03 | 87 | 1014.1 |
| 20260502152003 | 52 | 337 | 1.0 | 4.0 | 0.00 | 0.03 | 0.03 | 88 | 1014.2 |
| 20260502151523 | 52 | 340 | 0.0 | 4.0 | 0.00 | 0.03 | 0.03 | 88 | 1014.2 |
| 20260502151002 | 52 | 348 | 1.0 | 4.0 | 0.00 | 0.03 | 0.03 | 88 | 1014.2 |
| 20260502150502 | 51 | 340 | 1.0 | 4.0 | 0.00 | 0.03 | 0.03 | 88 | 1014.1 |
| 20260502130523 | 50 | 307 | 0.0 | 2.0 | 0.00 | 0.03 | 0.03 | 91 | 1014.0 |
| 20260502123502 | 49 | 0 | 0.0 | 0.0 | 0.00 | 0.03 | 0.03 | 91 | 1013.9 |
| 20260502123003 | 49 | 0 | 0.0 | 0.0 | 0.00 | 0.03 | 0.03 | 90 | 1013.9 |
| 20260502122502 | 49 | 0 | 0.0 | 0.0 | 0.00 | 0.03 | 0.03 | 90 | 1013.9 |
| 20260502122002 | 49 | 0 | 0.0 | 0.0 | 0.00 | 0.03 | 0.03 | 90 | 1014.0 |
| 20260502121502 | 49 | 0 | 0.0 | 0.0 | 0.00 | 0.03 | 0.03 | 90 | 1014.0 |
| 20260502121002 | 49 | 0 | 0.0 | 0.0 | 0.00 | 0.03 | 0.03 | 90 | 1013.9 |
| 20260502120503 | 50 | 0 | 0.0 | 0.0 | 0.00 | 0.03 | 0.03 | 90 | 1013.8 |
| 20260502115523 | 50 | 0 | 0.0 | 0.0 | 0.00 | 0.03 | 0.03 | 89 | 1014.0 |
| 20260502114502 | 50 | 315 | 0.0 | 3.0 | 0.00 | 0.03 | 0.03 | 89 | 1013.9 |
| 20260502114003 | 50 | 320 | 1.0 | 3.0 | 0.00 | 0.03 | 0.03 | 89 | 1013.9 |
| 20260502113502 | 50 | 330 | 0.0 | 2.0 | 0.00 | 0.03 | 0.03 | 89 | 1014.0 |
| 20260502113002 | 50 | 0 | 0.0 | 0.0 | 0.00 | 0.03 | 0.03 | 89 | 1013.9 |
| 20260502112502 | 50 | 0 | 0.0 | 0.0 | 0.00 | 0.03 | 0.03 | 89 | 1014.0 |
| 20260502112003 | 50 | 0 | 0.0 | 0.0 | 0.00 | 0.03 | 0.03 | 89 | 1014.0 |
| 20260502111503 | 50 | 0 | 0.0 | 0.0 | 0.00 | 0.03 | 0.03 | 89 | 1014.0 |
| 20260502111002 | 50 | 204 | 0.0 | 1.0 | 0.00 | 0.03 | 0.03 | 89 | 1014.2 |
| 20260502110502 | 50 | 246 | 1.0 | 2.0 | 0.00 | 0.03 | 0.03 | 89 | 1014.0 |
| 20260502110003 | 50 | 266 | 1.0 | 3.0 | 0.00 | 0.03 | 0.03 | 89 | 1014.0 |
| 20260502105502 | 50 | 6 | 0.0 | 3.0 | 0.00 | 0.03 | 0.03 | 89 | 1013.6 |
| 20260502105002 | 50 | 0 | 0.0 | 0.0 | 0.00 | 0.03 | 0.03 | 89 | 1013.7 |
| 20260502104503 | 50 | 0 | 0.0 | 0.0 | 0.00 | 0.03 | 0.03 | 89 | 1013.8 |
| 20260502104023 | 50 | 5 | 0.0 | 1.0 | 0.00 | 0.03 | 0.03 | 89 | 1013.9 |
| 20260502103502 | 51 | 43 | 0.0 | 2.0 | 0.00 | 0.03 | 0.03 | 89 | 1013.9 |
| 20260502103002 | 51 | 45 | 0.0 | 2.0 | 0.00 | 0.03 | 0.03 | 89 | 1014.0 |
| 20260502102503 | 51 | 356 | 0.0 | 1.0 | 0.00 | 0.03 | 0.03 | 89 | 1014.1 |
| 20260502102002 | 51 | 345 | 0.0 | 4.0 | 0.00 | 0.03 | 0.03 | 89 | 1014.1 |
| 20260502101503 | 51 | 342 | 1.0 | 4.0 | 0.00 | 0.03 | 0.03 | 89 | 1013.9 |
| 20260502101024 | 51 | 360 | 1.0 | 4.0 | 0.00 | 0.03 | 0.03 | 89 | 1013.9 |
| 20260502100502 | 51 | 62 | 0.0 | 2.0 | 0.00 | 0.03 | 0.03 | 89 | 1013.9 |
| 20260502091503 | 53 | 0 | 0.0 | 0.0 | 0.02 | 0.03 | 0.03 | 87 | 1014.7 |
| 20260502091002 | 53 | 0 | 0.0 | 0.0 | 0.03 | 0.03 | 0.03 | 87 | 1014.7 |
| 20260502090503 | 53 | 0 | 0.0 | 0.0 | 0.03 | 0.03 | 0.03 | 86 | 1015.0 |
| 20260502071502 | 56 | 334 | 0.0 | 3.0 | 0.00 | 0.00 | 0.00 | 74 | 1014.7 |
| 20260502071003 | 56 | 329 | 0.0 | 4.0 | 0.00 | 0.00 | 0.00 | 74 | 1014.8 |
| 20260502070524 | 56 | 329 | 1.0 | 4.0 | 0.00 | 0.00 | 0.00 | 74 | 1014.7 |
| 20260502070024 | 57 | 331 | 1.0 | 3.0 | 0.00 | 0.00 | 0.00 | 73 | 1014.7 |
| 20260502065502 | 57 | 335 | 1.0 | 4.0 | 0.00 | 0.00 | 0.00 | 73 | 1014.8 |
| 20260502065003 | 57 | 338 | 1.0 | 4.0 | 0.00 | 0.00 | 0.00 | 73 | 1014.7 |
| 20260502064503 | 57 | 336 | 0.0 | 2.0 | 0.00 | 0.00 | 0.00 | 73 | 1014.8 |
| 20260502064002 | 58 | 338 | 0.0 | 2.0 | 0.00 | 0.00 | 0.00 | 73 | 1014.8 |
| 20260502063502 | 58 | 334 | 0.0 | 1.0 | 0.00 | 0.00 | 0.00 | 73 | 1014.7 |
| 20260502063003 | 58 | 0 | 0.0 | 0.0 | 0.00 | 0.00 | 0.00 | 73 | 1014.8 |
| 20260502062502 | 58 | 0 | 0.0 | 0.0 | 0.00 | 0.00 | 0.00 | 72 | 1014.7 |
| 20260502062003 | 58 | 327 | 1.0 | 5.0 | 0.00 | 0.00 | 0.00 | 72 | 1014.7 |
| 20260502061003 | 59 | 337 | 1.0 | 4.0 | 0.00 | 0.00 | 0.00 | 72 | 1014.7 |
| 20260502060503 | 59 | 335 | 1.0 | 6.0 | 0.00 | 0.00 | 0.00 | 72 | 1014.6 |
| 20260502060002 | 59 | 336 | 2.0 | 6.0 | 0.00 | 0.00 | 0.00 | 72 | 1014.6 |
| 20260502055524 | 59 | 333 | 2.0 | 5.0 | 0.00 | 0.00 | 0.00 | 71 | 1014.6 |
| 20260502055002 | 60 | 325 | 2.0 | 4.0 | 0.00 | 0.00 | 0.00 | 71 | 1014.4 |
| 20260502054503 | 60 | 328 | 1.0 | 5.0 | 0.00 | 0.00 | 0.00 | 71 | 1014.4 |
| 20260502054003 | 60 | 333 | 1.0 | 5.0 | 0.00 | 0.00 | 0.00 | 70 | 1014.4 |
| 20260502053503 | 61 | 325 | 1.0 | 5.0 | 0.00 | 0.00 | 0.00 | 70 | 1014.3 |
| 20260502053003 | 61 | 320 | 1.0 | 4.0 | 0.00 | 0.00 | 0.00 | 70 | 1014.3 |
| 20260502052503 | 61 | 323 | 1.0 | 4.0 | 0.00 | 0.00 | 0.00 | 70 | 1014.3 |
| 20260502052002 | 61 | 324 | 1.0 | 4.0 | 0.00 | 0.00 | 0.00 | 69 | 1014.3 |
| 20260502051503 | 62 | 293 | 0.0 | 3.0 | 0.00 | 0.00 | 0.00 | 69 | 1014.2 |
| 20260502051003 | 62 | 299 | 1.0 | 3.0 | 0.00 | 0.00 | 0.00 | 69 | 1014.2 |
| 20260502050524 | 62 | 317 | 0.0 | 3.0 | 0.00 | 0.00 | 0.00 | 68 | 1014.2 |
| 20260502050003 | 62 | 326 | 1.0 | 3.0 | 0.00 | 0.00 | 0.00 | 68 | 1014.1 |
| 20260502045524 | 62 | 319 | 1.0 | 3.0 | 0.00 | 0.00 | 0.00 | 68 | 1014.1 |
| 20260502045003 | 62 | 312 | 1.0 | 4.0 | 0.00 | 0.00 | 0.00 | 67 | 1014.1 |
| 20260502044524 | 63 | 305 | 1.0 | 4.0 | 0.00 | 0.00 | 0.00 | 67 | 1013.9 |
| 20260502044003 | 63 | 296 | 1.0 | 4.0 | 0.00 | 0.00 | 0.00 | 67 | 1014.0 |
| 20260502043524 | 63 | 295 | 1.0 | 4.0 | 0.00 | 0.00 | 0.00 | 67 | 1014.0 |
| 20260502043003 | 63 | 294 | 1.0 | 6.0 | 0.00 | 0.00 | 0.00 | 66 | 1014.0 |
| 20260502042503 | 64 | 297 | 1.0 | 6.0 | 0.00 | 0.00 | 0.00 | 66 | 1014.0 |
| 20260502042003 | 64 | 296 | 1.0 | 5.0 | 0.00 | 0.00 | 0.00 | 66 | 1013.9 |
| 20260502041524 | 64 | 296 | 1.0 | 5.0 | 0.00 | 0.00 | 0.00 | 66 | 1013.8 |
| 20260502041003 | 64 | 300 | 1.0 | 5.0 | 0.00 | 0.00 | 0.00 | 65 | 1013.6 |
| 20260502040503 | 64 | 298 | 1.0 | 4.0 | 0.00 | 0.00 | 0.00 | 65 | 1013.5 |
| 20260502040002 | 64 | 305 | 1.0 | 4.0 | 0.00 | 0.00 | 0.00 | 64 | 1013.5 |
| 20260502035503 | 64 | 295 | 1.0 | 4.0 | 0.00 | 0.00 | 0.00 | 62 | 1013.4 |
| 20260502035024 | 65 | 269 | 1.0 | 4.0 | 0.00 | 0.00 | 0.00 | 61 | 1013.2 |
| 20260502034502 | 65 | 265 | 1.0 | 6.0 | 0.00 | 0.00 | 0.00 | 61 | 1013.1 |
| 20260502034003 | 65 | 270 | 1.0 | 6.0 | 0.00 | 0.00 | 0.00 | 60 | 1013.0 |
| 20260502033503 | 66 | 245 | 1.0 | 4.0 | 0.00 | 0.00 | 0.00 | 60 | 1012.9 |
| 20260502033003 | 66 | 248 | 1.0 | 4.0 | 0.00 | 0.00 | 0.00 | 61 | 1012.9 |
| 20260502032503 | 66 | 243 | 1.0 | 3.0 | 0.00 | 0.00 | 0.00 | 63 | 1012.8 |
| 20260502032003 | 66 | 222 | 0.0 | 2.0 | 0.00 | 0.00 | 0.00 | 65 | 1012.8 |
| 20260502031503 | 67 | 216 | 0.0 | 2.0 | 0.00 | 0.00 | 0.00 | 65 | 1012.8 |
| 20260502031003 | 67 | 194 | 1.0 | 2.0 | 0.00 | 0.00 | 0.00 | 64 | 1012.7 |
| 20260502030503 | 67 | 199 | 1.0 | 2.0 | 0.00 | 0.00 | 0.00 | 64 | 1012.6 |
| 20260502030003 | 67 | 208 | 1.0 | 2.0 | 0.00 | 0.00 | 0.00 | 63 | 1012.6 |
| 20260502025503 | 67 | 212 | 1.0 | 3.0 | 0.00 | 0.00 | 0.00 | 61 | 1012.5 |
| 20260502025003 | 67 | 217 | 1.0 | 3.0 | 0.00 | 0.00 | 0.00 | 60 | 1012.5 |
| 20260502024503 | 68 | 216 | 1.0 | 3.0 | 0.00 | 0.00 | 0.00 | 61 | 1012.4 |
| 20260502024003 | 68 | 214 | 1.0 | 2.0 | 0.00 | 0.00 | 0.00 | 61 | 1012.4 |
| 20260502023503 | 68 | 218 | 1.0 | 2.0 | 0.00 | 0.00 | 0.00 | 61 | 1012.5 |
| 20260502023024 | 68 | 215 | 1.0 | 2.0 | 0.00 | 0.00 | 0.00 | 61 | 1012.4 |
| 20260502022503 | 69 | 209 | 1.0 | 3.0 | 0.00 | 0.00 | 0.00 | 61 | 1012.4 |
| 20260502022003 | 69 | 197 | 1.0 | 2.0 | 0.00 | 0.00 | 0.00 | 60 | 1012.3 |
| 20260502021502 | 70 | 186 | 1.0 | 3.0 | 0.00 | 0.00 | 0.00 | 58 | 1012.2 |
| 20260502021003 | 71 | 184 | 1.0 | 3.0 | 0.00 | 0.00 | 0.00 | 58 | 1012.1 |
| 20260502020502 | 71 | 204 | 1.0 | 2.0 | 0.00 | 0.00 | 0.00 | 59 | 1012.1 |
| 20260502020003 | 71 | 220 | 1.0 | 3.0 | 0.00 | 0.00 | 0.00 | 58 | 1012.0 |
| 20260502015503 | 72 | 210 | 1.0 | 3.0 | 0.00 | 0.00 | 0.00 | 57 | 1012.0 |
| 20260502015024 | 72 | 194 | 1.0 | 3.0 | 0.00 | 0.00 | 0.00 | 56 | 1012.0 |
| 20260502014502 | 72 | 186 | 1.0 | 2.0 | 0.00 | 0.00 | 0.00 | 55 | 1012.0 |
| 20260502014003 | 72 | 207 | 1.0 | 2.0 | 0.00 | 0.00 | 0.00 | 56 | 1012.0 |
| 20260502013503 | 72 | 213 | 1.0 | 2.0 | 0.00 | 0.00 | 0.00 | 55 | 1012.1 |
| 20260502013003 | 72 | 208 | 1.0 | 3.0 | 0.00 | 0.00 | 0.00 | 55 | 1012.1 |
| 20260502012503 | 72 | 191 | 1.0 | 3.0 | 0.00 | 0.00 | 0.00 | 54 | 1012.1 |
| 20260502012003 | 73 | 188 | 1.0 | 3.0 | 0.00 | 0.00 | 0.00 | 54 | 1012.1 |
| 20260502011503 | 73 | 210 | 1.0 | 2.0 | 0.00 | 0.00 | 0.00 | 53 | 1012.1 |
| 20260502011024 | 73 | 204 | 1.0 | 2.0 | 0.00 | 0.00 | 0.00 | 54 | 1012.1 |
| 20260502010503 | 74 | 195 | 1.0 | 2.0 | 0.00 | 0.00 | 0.00 | 52 | 1012.0 |
| 20260502010003 | 74 | 194 | 1.0 | 2.0 | 0.00 | 0.00 | 0.00 | 52 | 1012.1 |
| 20260502005524 | 74 | 197 | 1.0 | 3.0 | 0.00 | 0.00 | 0.00 | 51 | 1012.1 |
| 20260502005003 | 74 | 227 | 1.0 | 3.0 | 0.00 | 0.00 | 0.00 | 51 | 1012.1 |
| 20260502004503 | 74 | 218 | 1.0 | 3.0 | 0.00 | 0.00 | 0.00 | 50 | 1012.1 |
| 20260502004003 | 74 | 201 | 1.0 | 3.0 | 0.00 | 0.00 | 0.00 | 50 | 1012.1 |
| 20260502003503 | 74 | 221 | 1.0 | 3.0 | 0.00 | 0.00 | 0.00 | 50 | 1012.2 |
| 20260502003003 | 74 | 219 | 1.0 | 3.0 | 0.00 | 0.00 | 0.00 | 50 | 1012.2 |
| 20260502002524 | 74 | 200 | 1.0 | 4.0 | 0.00 | 0.00 | 0.00 | 49 | 1012.2 |
| 20260502002024 | 75 | 205 | 1.0 | 4.0 | 0.00 | 0.00 | 0.00 | 49 | 1012.1 |
| 20260502001503 | 75 | 203 | 1.0 | 2.0 | 0.00 | 0.00 | 0.00 | 49 | 1012.1 |
| 20260502001024 | 76 | 198 | 1.0 | 2.0 | 0.00 | 0.00 | 0.00 | 49 | 1012.2 |
| 20260502000503 | 76 | 250 | 1.0 | 6.0 | 0.00 | 0.00 | 0.00 | 48 | 1012.2 |
| 20260502000003 | 76 | 253 | 1.0 | 6.0 | 0.00 | 0.00 | 0.00 | 48 | 1012.2 |
| 20260501235502 | 76 | 232 | 0.0 | 3.0 | 0.00 | 0.00 | 0.00 | 49 | 1012.2 |
| 20260501235003 | 75 | 249 | 1.0 | 3.0 | 0.00 | 0.00 | 0.00 | 49 | 1012.2 |
| 20260501234503 | 75 | 257 | 1.0 | 3.0 | 0.00 | 0.00 | 0.00 | 49 | 1012.2 |
| 20260501234003 | 75 | 243 | 0.0 | 2.0 | 0.00 | 0.00 | 0.00 | 49 | 1012.3 |
| 20260501233503 | 75 | 197 | 0.0 | 2.0 | 0.00 | 0.00 | 0.00 | 50 | 1012.3 |
| 20260501233003 | 75 | 143 | 1.0 | 3.0 | 0.00 | 0.00 | 0.00 | 50 | 1012.4 |
| 20260501232503 | 75 | 158 | 1.0 | 3.0 | 0.00 | 0.00 | 0.00 | 50 | 1012.4 |
| 20260501232003 | 75 | 197 | 1.0 | 2.0 | 0.00 | 0.00 | 0.00 | 50 | 1012.4 |
| 20260501231503 | 74 | 195 | 1.0 | 2.0 | 0.00 | 0.00 | 0.00 | 51 | 1012.6 |
| 20260501231003 | 74 | 190 | 1.0 | 2.0 | 0.00 | 0.00 | 0.00 | 51 | 1012.6 |
| 20260501230503 | 75 | 185 | 1.0 | 2.0 | 0.00 | 0.00 | 0.00 | 50 | 1012.6 |
| 20260501230024 | 75 | 246 | 1.0 | 6.0 | 0.00 | 0.00 | 0.00 | 50 | 1012.7 |
| 20260501225503 | 74 | 275 | 1.0 | 6.0 | 0.00 | 0.00 | 0.00 | 51 | 1012.8 |
| 20260501225003 | 74 | 132 | 1.0 | 3.0 | 0.00 | 0.00 | 0.00 | 52 | 1012.8 |
| 20260501224503 | 74 | 209 | 1.0 | 2.0 | 0.00 | 0.00 | 0.00 | 51 | 1013.0 |
| 20260501224003 | 74 | 214 | 1.0 | 4.0 | 0.00 | 0.00 | 0.00 | 51 | 1012.9 |
| 20260501223503 | 74 | 234 | 1.0 | 4.0 | 0.00 | 0.00 | 0.00 | 52 | 1013.0 |
| 20260501223003 | 74 | 173 | 1.0 | 4.0 | 0.00 | 0.00 | 0.00 | 53 | 1013.1 |
| 20260501222503 | 73 | 106 | 1.0 | 2.0 | 0.00 | 0.00 | 0.00 | 53 | 1013.1 |
| 20260501222003 | 73 | 122 | 1.0 | 3.0 | 0.00 | 0.00 | 0.00 | 53 | 1013.2 |
| 20260501221503 | 73 | 137 | 1.0 | 3.0 | 0.00 | 0.00 | 0.00 | 53 | 1013.2 |
| 20260501221003 | 73 | 147 | 1.0 | 2.0 | 0.00 | 0.00 | 0.00 | 54 | 1013.3 |
| 20260501220503 | 72 | 159 | 1.0 | 2.0 | 0.00 | 0.00 | 0.00 | 54 | 1013.3 |
| 20260501220003 | 73 | 178 | 1.0 | 3.0 | 0.00 | 0.00 | 0.00 | 53 | 1013.4 |
| 20260501215503 | 72 | 184 | 1.0 | 3.0 | 0.00 | 0.00 | 0.00 | 54 | 1013.4 |
| 20260501215003 | 72 | 231 | 1.0 | 3.0 | 0.00 | 0.00 | 0.00 | 53 | 1013.5 |
| 20260501214503 | 72 | 240 | 1.0 | 3.0 | 0.00 | 0.00 | 0.00 | 55 | 1013.5 |
| 20260501214003 | 72 | 192 | 1.0 | 2.0 | 0.00 | 0.00 | 0.00 | 55 | 1013.6 |
| 20260501213503 | 71 | 127 | 1.0 | 2.0 | 0.00 | 0.00 | 0.00 | 56 | 1013.7 |
| 20260501213003 | 71 | 96 | 1.0 | 6.0 | 0.00 | 0.00 | 0.00 | 55 | 1013.8 |
| 20260501212503 | 71 | 82 | 1.0 | 6.0 | 0.00 | 0.00 | 0.00 | 54 | 1013.8 |
| 20260501212003 | 72 | 136 | 1.0 | 4.0 | 0.00 | 0.00 | 0.00 | 53 | 1013.9 |
| 20260501211503 | 72 | 143 | 1.0 | 4.0 | 0.00 | 0.00 | 0.00 | 53 | 1014.0 |
| 20260501211024 | 72 | 149 | 1.0 | 2.0 | 0.00 | 0.00 | 0.00 | 54 | 1014.0 |
| 20260501210503 | 72 | 129 | 1.0 | 2.0 | 0.00 | 0.00 | 0.00 | 53 | 1014.1 |
| 20260501210003 | 72 | 123 | 1.0 | 3.0 | 0.00 | 0.00 | 0.00 | 53 | 1014.1 |
| 20260501205503 | 72 | 140 | 1.0 | 3.0 | 0.00 | 0.00 | 0.00 | 52 | 1014.2 |
| 20260501205003 | 72 | 152 | 1.0 | 4.0 | 0.00 | 0.00 | 0.00 | 52 | 1014.3 |
| 20260501204503 | 72 | 158 | 1.0 | 4.0 | 0.00 | 0.00 | 0.00 | 52 | 1014.3 |
| 20260501204003 | 72 | 201 | 1.0 | 4.0 | 0.00 | 0.00 | 0.00 | 54 | 1014.3 |
| 20260501203503 | 71 | 206 | 1.0 | 4.0 | 0.00 | 0.00 | 0.00 | 55 | 1014.3 |
| 20260501203003 | 71 | 203 | 1.0 | 3.0 | 0.00 | 0.00 | 0.00 | 56 | 1014.4 |
| 20260501202503 | 71 | 236 | 1.0 | 5.0 | 0.00 | 0.00 | 0.00 | 55 | 1014.4 |
| 20260501202003 | 70 | 232 | 1.0 | 5.0 | 0.00 | 0.00 | 0.00 | 56 | 1014.5 |
| 20260501201524 | 70 | 198 | 1.0 | 2.0 | 0.00 | 0.00 | 0.00 | 56 | 1014.5 |
| 20260501201003 | 70 | 199 | 1.0 | 3.0 | 0.00 | 0.00 | 0.00 | 56 | 1014.6 |
| 20260501200503 | 71 | 212 | 1.0 | 3.0 | 0.00 | 0.00 | 0.00 | 56 | 1014.5 |
| 20260501200003 | 71 | 182 | 1.0 | 3.0 | 0.00 | 0.00 | 0.00 | 56 | 1014.5 |
| 20260501195503 | 70 | 165 | 1.0 | 3.0 | 0.00 | 0.00 | 0.00 | 56 | 1014.6 |
| 20260501195003 | 70 | 218 | 1.0 | 3.0 | 0.00 | 0.00 | 0.00 | 58 | 1014.5 |
| 20260501194524 | 69 | 242 | 1.0 | 3.0 | 0.00 | 0.00 | 0.00 | 58 | 1014.5 |
| 20260501194024 | 69 | 258 | 1.0 | 5.0 | 0.00 | 0.00 | 0.00 | 59 | 1014.5 |
| 20260501193503 | 69 | 302 | 1.0 | 5.0 | 0.00 | 0.00 | 0.00 | 59 | 1014.6 |
| 20260501193024 | 68 | 79 | 1.0 | 4.0 | 0.00 | 0.00 | 0.00 | 59 | 1014.7 |
| 20260501192503 | 68 | 166 | 1.0 | 3.0 | 0.00 | 0.00 | 0.00 | 57 | 1014.6 |
| 20260501192003 | 68 | 174 | 1.0 | 3.0 | 0.00 | 0.00 | 0.00 | 58 | 1014.7 |
| 20260501191524 | 68 | 190 | 1.0 | 3.0 | 0.00 | 0.00 | 0.00 | 59 | 1014.8 |
| 20260501191003 | 68 | 269 | 1.0 | 3.0 | 0.00 | 0.00 | 0.00 | 60 | 1014.8 |
| 20260501190503 | 67 | 116 | 1.0 | 3.0 | 0.00 | 0.00 | 0.00 | 61 | 1014.9 |
| 20260501190003 | 67 | 96 | 1.0 | 5.0 | 0.00 | 0.00 | 0.00 | 60 | 1014.9 |
| 20260501185503 | 67 | 128 | 1.0 | 5.0 | 0.00 | 0.00 | 0.00 | 60 | 1015.0 |
| 20260501185003 | 67 | 201 | 1.0 | 3.0 | 0.00 | 0.00 | 0.00 | 61 | 1014.9 |
| 20260501184503 | 67 | 203 | 1.0 | 2.0 | 0.00 | 0.00 | 0.00 | 61 | 1015.0 |
| 20260501184003 | 66 | 189 | 1.0 | 2.0 | 0.00 | 0.00 | 0.00 | 62 | 1015.0 |
| 20260501183524 | 66 | 134 | 1.0 | 3.0 | 0.00 | 0.00 | 0.00 | 61 | 1015.1 |
| 20260501183003 | 66 | 114 | 1.0 | 3.0 | 0.00 | 0.00 | 0.00 | 61 | 1015.0 |
| 20260501182503 | 66 | 132 | 1.0 | 3.0 | 0.00 | 0.00 | 0.00 | 62 | 1015.0 |
| 20260501182003 | 66 | 153 | 1.0 | 3.0 | 0.00 | 0.00 | 0.00 | 64 | 1014.9 |
| 20260501181524 | 65 | 160 | 1.0 | 2.0 | 0.00 | 0.00 | 0.00 | 64 | 1015.0 |
| 20260501181003 | 65 | 165 | 1.0 | 3.0 | 0.00 | 0.00 | 0.00 | 65 | 1015.0 |
| 20260501180503 | 65 | 216 | 1.0 | 7.0 | 0.00 | 0.00 | 0.00 | 66 | 1015.2 |
| 20260501180003 | 64 | 174 | 1.0 | 7.0 | 0.00 | 0.00 | 0.00 | 66 | 1015.2 |